Starlink 30933

operational
NORAD ID: 58410 Int'l Des: 2023-180 Owner: SPXS Country: US Constellation: starlink
LEOCIRCULAR

关于 Starlink 30933

正在加载描述...

实时位置

正在加载3D地球...

即将过境

高度历史

Altitude vs Time

uPlot chart will show altitude changes over time

两行轨道根数

1 58410U 23180J 25351.32779199 .00001888 00000-0 78085-4 0 9992
2 58410 43.0017 11.8787 0001192 205.7314 154.3478 15.27588077116743
Epoch: Dec 17, 2025 • Age: 17 hours

当前状态

高度 482.8 km
速度 7.63 km/s
星下点 10.74°N, 85.41°W
发射日期 Nov 22, 2023
运行时间 2 years
类型 internet

技术详情

分类 Payload
质量 730.00 kg
干质量 700.00 kg
总质量 730.00 kg
长度 0.30 m
直径 4.10 m
跨度 29.00 m
形状 Box + pan
制造商 SPXS
平台类型 Starlink V2M
阶段状态 In Orbit
所有者/国家 SPXS/US

大型星座

Loading constellations...